DW3766 Weather Reports


Display with metric or nautical units.
time (UTC)temp
F
wind
direction
speed
MPH
gust
MPH
rain 1hr
in
rain 24hr
in
rain mn
in
humidity
%
barometer
mb
20260904212129 89 184 5.0 11.0 0.00 0.00 0.00 1012.8
20260904211639 89 174 7.0 11.0 0.00 0.00 0.00 1012.9
20260904211213 90 146 4.0 11.0 0.00 0.00 0.00 1012.9
20260904210715 90 155 7.0 10.0 0.00 0.00 0.00 1013.0
20260904210228 90 103 4.0 9.0 0.00 0.00 0.00 1013.0
20260904205639 90 145 6.0 9.0 0.00 0.00 0.00 1013.0
20260904205153 90 136 2.0 9.0 0.00 0.00 0.00 1013.0
20260904204623 90 159 6.0 10.0 0.00 0.00 0.00 1013.0
20260904204155 90 129 4.0 10.0 0.00 0.00 0.00 1013.1
20260904203622 90 101 4.0 8.0 0.00 0.00 0.00 1013.1
20260904203158 90 103 5.0 8.0 0.00 0.00 0.00 1013.1
20260904202647 90 169 4.0 8.0 0.00 0.00 0.00 1013.1
20260904202117 90 159 5.0 8.0 0.00 0.00 0.00 1013.2
20260904201653 89 135 3.0 8.0 0.00 0.00 0.00 1013.2
20260904201126 89 166 6.0 8.0 0.00 0.00 0.00 1013.3
20260904200703 89 175 4.0 7.0 0.00 0.00 0.00 1013.3
20260904200130 88 134 4.0 9.0 0.00 0.00 0.00 1013.3
20260904195706 88 135 5.0 9.0 0.00 0.00 0.00 1013.4
20260904195134 88 134 4.0 7.0 0.00 0.00 0.00 1013.5
20260904194650 88 159 3.0 6.0 0.00 0.00 0.00 1013.5
20260904194116 88 192 3.0 7.0 0.00 0.00 0.00 1013.6
20260904193651 88 198 4.0 7.0 0.00 0.00 0.00 1013.7
20260904193118 88 122 3.0 9.0 0.00 0.00 0.00 1013.7
20260904192646 89 135 5.0 9.0 0.00 0.00 0.00 1013.7
20260904192223 89 131 5.0 12.0 0.00 0.00 0.00 1013.8
20260904191633 89 159 5.0 12.0 0.00 0.00 0.00 1013.8
20260904191207 89 147 5.0 10.0 0.00 0.00 0.00 1013.8
20260904190637 89 152 3.0 7.0 0.00 0.00 0.00 1013.9
20260904190207 88 117 3.0 9.0 0.00 0.00 0.00 1013.9
20260904185636 88 154 5.0 9.0 0.00 0.00 0.00 1014.1
20260904185209 88 144 4.0 7.0 0.00 0.00 0.00 1014.1
20260904184622 87 209 4.0 10.0 0.00 0.00 0.00 1014.2
20260904184132 87 124 6.0 10.0 0.00 0.00 0.00 1014.2
20260904183702 87 136 5.0 9.0 0.00 0.00 0.00 1014.2
20260904183140 87 119 4.0 9.0 0.00 0.00 0.00 1014.2
20260904182647 87 164 4.0 9.0 0.00 0.00 0.00 1014.2
20260904182202 87 170 4.0 8.0 0.00 0.00 0.00 1014.2
20260904181729 87 131 4.0 9.0 0.00 0.00 0.00 1014.3
20260904181114 87 155 4.0 9.0 0.00 0.00 0.00 1014.4
20260904180649 87 101 6.0 9.0 0.00 0.00 0.00 1014.5
20260904180156 87 88 4.0 10.0 0.00 0.00 0.00 1014.5
20260904175631 87 115 6.0 10.0 0.00 0.00 0.00 1014.4
20260904175158 87 120 7.0 10.0 0.00 0.00 0.00 1014.5
20260904174634 87 138 5.0 10.0 0.00 0.00 0.00 1014.6
20260904174202 87 121 7.0 10.0 0.00 0.00 0.00 1014.6
20260904173621 87 215 5.0 12.0 0.00 0.00 0.00 1014.6
20260904173150 86 168 5.0 15.0 0.00 0.00 0.00 1014.7
20260904172627 86 126 9.0 15.0 0.00 0.00 0.00 1014.7
20260904172155 86 125 6.0 10.0 0.00 0.00 0.00 1014.7
20260904171631 86 194 4.0 13.0 0.00 0.00 0.00 1014.8
20260904171159 86 148 7.0 10.0 0.00 0.00 0.00 1014.9
20260904170638 85 176 7.0 11.0 0.00 0.00 0.00 1014.9
20260904170145 85 200 7.0 11.0 0.00 0.00 0.00 1014.9
20260904165619 85 140 5.0 10.0 0.00 0.00 0.00 1014.9
20260904165155 85 157 5.0 8.0 0.00 0.00 0.00 1014.9
20260904164623 84 159 5.0 10.0 0.00 0.00 0.00 1014.9
20260904164132 84 69 5.0 10.0 0.00 0.00 0.00 1014.9
20260904163708 84 128 4.0 8.0 0.00 0.00 0.00 1014.9
20260904163133 84 166 4.0 9.0 0.00 0.00 0.00 1014.9
20260904162708 84 166 6.0 9.0 0.00 0.00 0.00 1015.0
20260904162138 83 180 4.0 6.0 0.00 0.00 0.00 1015.1
20260904161707 83 175 3.0 6.0 0.00 0.00 0.00 1015.2
20260904161147 83 196 1.0 6.0 0.00 0.00 0.00 1015.1
20260904160717 82 109 3.0 6.0 0.00 0.00 0.00 1015.2
20260904160130 82 106 3.0 7.0 0.00 0.00 0.00 1015.2
20260904155656 82 118 3.0 7.0 0.00 0.00 0.00 1015.2
20260904155129 82 105 4.0 7.0 0.00 0.00 0.00 1015.2
20260904154638 81 143 1.0 7.0 0.00 0.00 0.00 1015.3
20260904154209 81 145 3.0 7.0 0.00 0.00 0.00 1015.3
20260904153634 81 121 3.0 6.0 0.00 0.00 0.00 1015.2
20260904153202 81 109 2.0 7.0 0.00 0.00 0.00 1015.2
20260904152614 80 99 1.0 7.0 0.00 0.00 0.00 1015.1
20260904152136 80 133 2.0 7.0 0.00 0.00 0.00 1015.0
20260904151616 80 159 3.0 6.0 0.00 0.00 0.00 1014.9
20260904151144 80 149 3.0 6.0 0.00 0.00 0.00 1014.8
20260904150614 80 164 1.0 4.0 0.00 0.00 0.00 1014.9
20260904150128 80 160 1.0 5.0 0.00 0.00 0.00 1015.0
20260904145657 80 134 3.0 5.0 0.00 0.00 0.00 1015.0
20260904145132 80 95 1.0 5.0 0.00 0.00 0.00 1015.0
20260904144701 80 128 1.0 5.0 0.00 0.00 0.00 1015.1
20260904144114 80 160 1.0 6.0 0.00 0.00 0.00 1015.0
20260904143642 80 157 1.0 8.0 0.00 0.00 0.00 1014.9
20260904143123 79 147 4.0 8.0 0.00 0.00 0.00 1014.8
20260904142652 79 164 6.0 8.0 0.00 0.00 0.00 1014.7
20260904142202 79 171 5.0 8.0 0.00 0.00 0.00 1014.8
20260904141629 79 179 5.0 9.0 0.00 0.00 0.00 1014.8
20260904141132 79 160 5.0 9.0 0.00 0.00 0.00 1014.8
20260904140648 79 153 4.0 7.0 0.00 0.00 0.00 1014.7
20260904140217 79 167 4.0 8.0 0.00 0.00 0.00 1014.6
20260904135704 79 168 5.0 8.0 0.00 0.00 0.00 1014.7
20260904135138 79 175 4.0 7.0 0.00 0.00 0.00 1014.7
20260904134646 79 127 5.0 8.0 0.00 0.00 0.00 1014.5
20260904134221 79 129 5.0 8.0 0.00 0.00 0.00 1014.4
20260904133630 79 168 5.0 8.0 0.00 0.00 0.00 1014.4
20260904133159 79 144 3.0 8.0 0.00 0.00 0.00 1014.4
20260904132639 79 148 5.0 8.0 0.00 0.00 0.00 1014.4
20260904132205 79 129 6.0 8.0 0.00 0.00 0.00 1014.3
20260904131640 79 130 4.0 9.0 0.00 0.00 0.00 1014.3
20260904131205 79 135 5.0 9.0 0.00 0.00 0.00 1014.4
20260904130642 79 150 4.0 6.0 0.00 0.00 0.00 1014.3
20260904130206 79 110 4.0 8.0 0.00 0.00 0.00 1014.2
20260904125643 79 137 5.0 8.0 0.00 0.00 0.00 1014.2
20260904125212 79 126 3.0 7.0 0.00 0.00 0.00 1014.1
20260904124632 79 113 4.0 6.0 0.00 0.00 0.00 1014.1
20260904124201 79 110 3.0 6.0 0.00 0.00 0.00 1013.9
20260904123630 79 100 2.0 7.0 0.00 0.00 0.00 1013.7
20260904123203 79 157 5.0 7.0 0.00 0.00 0.00 1013.8
20260904122632 79 142 4.0 7.0 0.00 0.00 0.00 1013.7
20260904122121 79 124 3.0 5.0 0.00 0.00 0.00 1013.7
20260904121658 79 151 3.0 6.0 0.00 0.00 0.00 1013.8
20260904121204 79 131 3.0 7.0 0.00 0.00 0.00 1013.7
20260904120641 78 146 5.0 7.0 0.00 0.00 0.00 1013.7
20260904120206 78 154 4.0 6.0 0.00 0.00 0.00 1013.5
20260904115647 78 180 3.0 7.0 0.00 0.00 0.00 1013.4
20260904115155 78 155 2.0 7.0 0.00 0.00 0.00 1013.3
20260904114631 78 140 3.0 7.0 0.00 0.00 0.00 1013.3
20260904114200 78 136 2.0 5.0 0.00 0.00 0.00 1013.2
20260904113630 78 129 2.0 5.0 0.00 0.00 0.00 1013.2
20260904113146 78 130 2.0 6.0 0.00 0.00 0.00 1013.1
20260904112616 78 98 3.0 6.0 0.00 0.00 0.00 1013.1
20260904112141 78 122 3.0 6.0 0.00 0.00 0.00 1013.1
20260904111718 78 152 3.0 7.0 0.00 0.00 0.00 1013.1
20260904111128 78 146 5.0 7.0 0.00 0.00 0.00 1013.0
20260904110705 78 150 4.0 5.0 0.00 0.00 0.00 1013.1
20260904110114 78 160 3.0 4.0 0.00 0.00 0.00 1013.1
20260904105651 78 120 2.0 3.0 0.00 0.00 0.00 1013.2
20260904105121 78 100 2.0 5.0 0.00 0.00 0.00 1013.1
20260904104650 78 123 2.0 4.0 0.00 0.00 0.00 1013.2
20260904104145 78 101 1.0 4.0 0.00 0.00 0.00 1013.1
20260904103614 78 167 2.0 5.0 0.00 0.00 0.00 1013.0
20260904103142 78 151 2.0 5.0 0.00 0.00 0.00 1013.0
20260904102623 78 150 2.0 5.0 0.00 0.00 0.00 1013.0
20260904102152 78 138 2.0 5.0 0.00 0.00 0.00 1013.0
20260904101628 78 166 2.0 5.0 0.00 0.00 0.00 1012.9
20260904101157 79 155 3.0 5.0 0.00 0.00 0.00 1012.8
20260904100634 79 162 2.0 5.0 0.00 0.00 0.00 1012.9
20260904100201 79 165 3.0 6.0 0.00 0.00 0.00 1012.9
20260904095717 79 176 2.0 6.0 0.00 0.00 0.00 1012.8
20260904095157 79 181 3.0 6.0 0.00 0.00 0.00 1012.8
20260904094644 79 146 2.0 6.0 0.00 0.00 0.00 1012.8
20260904094118 79 153 3.0 6.0 0.00 0.00 0.00 1012.8
20260904093625 79 151 4.0 6.0 0.00 0.00 0.00 1012.9
20260904093202 79 131 3.0 7.0 0.00 0.00 0.00 1012.8
20260904092732 79 142 4.0 8.0 0.00 0.00 0.00 1012.7
20260904092149 79 163 2.0 7.0 0.00 0.00 0.00 1012.8
20260904091618 79 146 4.0 8.0 0.00 0.00 0.00 1012.8
20260904091154 79 173 6.0 8.0 0.00 0.00 0.00 1012.8
20260904090622 79 169 4.0 7.0 0.00 0.00 0.00 1012.8
20260904090151 79 149 4.0 8.0 0.00 0.00 0.00 1012.8
20260904085625 79 166 4.0 8.0 0.00 0.00 0.00 1012.8
20260904085131 79 159 3.0 8.0 0.00 0.00 0.00 1012.7
20260904084704 79 158 4.0 9.0 0.00 0.00 0.00 1012.8
20260904084202 79 167 4.0 9.0 0.00 0.00 0.00 1012.7
20260904083632 79 168 4.0 8.0 0.00 0.00 0.00 1012.7
20260904083206 79 143 5.0 9.0 0.00 0.00 0.00 1012.7
20260904082614 79 175 5.0 10.0 0.00 0.00 0.00 1012.7
20260904082147 79 166 5.0 8.0 0.00 0.00 0.00 1012.8
20260904081657 79 159 3.0 6.0 0.00 0.00 0.00 1012.8
20260904081130 79 159 2.0 5.0 0.00 0.00 0.00 1013.0
20260904080655 79 148 4.0 7.0 0.00 0.00 0.00 1013.0
20260904080125 79 208 2.0 7.0 0.00 0.00 0.00 1013.0
20260904075653 79 141 0.0 6.0 0.00 0.00 0.00 1013.0
20260904075129 79 161 3.0 6.0 0.00 0.00 0.00 1013.0
20260904074634 79 171 4.0 7.0 0.00 0.00 0.00 1013.1
20260904074157 80 152 3.0 7.0 0.00 0.00 0.00 1013.2
20260904073632 80 139 3.0 7.0 0.00 0.00 0.00 1013.2
20260904073149 80 148 4.0 7.0 0.00 0.00 0.00 1013.2
20260904072615 80 163 2.0 6.0 0.00 0.00 0.00 1013.2
20260904072150 80 138 4.0 8.0 0.00 0.00 0.00 1013.2
20260904071619 80 153 4.0 8.0 0.00 0.00 0.00 1013.3
20260904071146 80 145 5.0 9.0 0.00 0.00 0.00 1013.3
20260904070650 80 135 6.0 9.0 0.00 0.00 0.00 1013.4
20260904070147 80 149 6.0 9.0 0.00 0.00 0.00 1013.5
20260904065626 80 151 4.0 8.0 0.00 0.00 0.00 1013.4
20260904065135 80 158 4.0 7.0 0.00 0.00 0.00 1013.5
20260904064617 80 178 3.0 8.0 0.00 0.00 0.00 1013.6
20260904064144 80 130 4.0 8.0 0.00 0.00 0.00 1013.6
20260904063625 80 112 4.0 8.0 0.00 0.00 0.00 1013.6
20260904063134 80 165 5.0 8.0 0.00 0.00 0.00 1013.6
20260904062615 80 146 5.0 8.0 0.00 0.00 0.00 1013.5
20260904062129 80 143 6.0 8.0 0.00 0.00 0.00 1013.6
20260904061634 80 146 4.0 9.0 0.00 0.00 0.00 1013.5
20260904061113 80 151 6.0 10.0 0.00 0.00 0.00 1013.6
20260904060642 81 166 6.0 10.0 0.00 0.00 0.00 1013.5
20260904060123 81 132 6.0 10.0 0.00 0.00 0.00 1013.6
20260904055652 81 139 6.0 10.0 0.00 0.00 0.00 1013.6
20260904055118 81 158 5.0 10.0 0.00 0.00 0.00 1013.4
20260904054620 81 169 6.0 9.0 0.00 0.00 0.00 1013.5
20260904054130 81 156 5.0 12.0 0.00 0.00 0.00 1013.4
20260904053632 81 153 5.0 14.0 0.00 0.00 0.00 1013.4
20260904053136 81 161 8.0 14.0 0.00 0.00 0.00 1013.4
20260904052637 82 159 4.0 10.0 0.00 0.00 0.00 1013.4
20260904052124 82 152 5.0 12.0 0.00 0.00 0.00 1013.3
20260904051626 82 164 7.0 13.0 0.00 0.00 0.00 1013.3
20260904051129 82 159 7.0 13.0 0.00 0.00 0.00 1013.1
20260904050637 82 163 7.0 12.0 0.00 0.00 0.00 1013.0
20260904050115 82 137 9.0 12.0 0.00 0.00 0.00 1013.1
20260904045650 82 155 5.0 10.0 0.00 0.00 0.00 1013.2
20260904045127 82 151 6.0 9.0 0.00 0.00 0.00 1013.2
20260904044653 83 160 5.0 9.0 0.00 0.00 0.00 1013.2
20260904044143 83 135 4.0 12.0 0.00 0.00 0.00 1013.1
20260904043616 83 151 7.0 10.0 0.00 0.00 0.00 1013.0
20260904043153 83 139 5.0 10.0 0.00 0.00 0.00 1012.9
20260904042701 83 147 6.0 11.0 0.00 0.00 0.00 1013.1
20260904042137 83 149 5.0 11.0 0.00 0.00 0.00 1013.1
20260904041637 83 150 6.0 9.0 0.00 0.00 0.00 1013.1
20260904041149 84 151 5.0 9.0 0.00 0.00 0.00 1013.2
20260904040615 84 123 4.0 11.0 0.00 0.00 0.00 1013.2
20260904040149 84 123 7.0 11.0 0.00 0.00 0.00 1013.1
20260904035618 84 126 3.0 11.0 0.00 0.00 0.00 1013.1
20260904035153 84 135 7.0 11.0 0.00 0.00 0.00 1013.1
20260904034620 84 148 4.0 11.0 0.00 0.00 0.00 1013.0
20260904034149 84 155 6.0 11.0 0.00 0.00 0.00 1012.9
20260904033625 85 145 5.0 9.0 0.00 0.00 0.00 1012.8
20260904033133 85 140 5.0 11.0 0.00 0.00 0.00 1012.7
20260904032706 85 147 6.0 11.0 0.00 0.00 0.00 1012.6
20260904032135 85 137 6.0 11.0 0.00 0.00 0.00 1012.6
20260904031644 85 120 5.0 12.0 0.00 0.00 0.00 1012.5
20260904031208 85 137 6.0 11.0 0.00 0.00 0.00 1012.4
20260904030642 85 116 7.0 21.0 0.00 0.00 0.00 1012.4
20260904030209 85 129 6.0 15.0 0.00 0.00 0.00 1012.3
20260904025643 85 125 9.0 15.0 0.00 0.00 0.00 1012.2
20260904025116 85 138 7.0 13.0 0.00 0.00 0.00 1012.2
20260904024645 85 132 5.0 12.0 0.00 0.00 0.00 1012.2
20260904024207 85 112 7.0 11.0 0.00 0.00 0.00 1012.0
20260904023635 85 143 6.0 10.0 0.00 0.00 0.00 1012.0
20260904023150 85 116 4.0 8.0 0.00 0.00 0.00 1012.0
20260904022657 85 144 4.0 7.0 0.00 0.00 0.00 1011.9
20260904022124 85 115 3.0 7.0 0.00 0.00 0.00 1011.9
20260904021702 85 107 1.0 6.0 0.00 0.00 0.00 1011.8
20260904021131 85 134 2.0 6.0 0.00 0.00 0.00 1011.6
20260904020658 86 119 3.0 6.0 0.00 0.00 0.00 1011.6
20260904020117 86 98 3.0 6.0 0.00 0.00 0.00 1011.6
20260904015647 86 126 2.0 7.0 0.00 0.00 0.00 1011.5
20260904015223 86 88 4.0 8.0 0.00 0.00 0.00 1011.3
20260904014629 86 139 5.0 10.0 0.00 0.00 0.00 1011.4
20260904014139 86 116 4.0 10.0 0.00 0.00 0.00 1011.4
20260904013654 86 77 5.0 10.0 0.00 0.00 0.00 1011.3
20260904013200 86 92 6.0 10.0 0.00 0.00 0.00 1011.3
20260904012636 87 101 5.0 11.0 0.00 0.00 0.00 1011.2
20260904012146 87 113 7.0 12.0 0.00 0.00 0.00 1011.2
20260904011633 87 111 7.0 12.0 0.00 0.00 0.00 1011.0
20260904011209 87 116 8.0 13.0 0.00 0.00 0.00 1011.0
20260904010617 87 110 7.0 14.0 0.00 0.00 0.00 1011.0
20260904010151 88 126 9.0 14.0 0.00 0.00 0.00 1010.9
20260904005625 88 119 7.0 13.0 0.00 0.00 0.00 1010.9
20260904005200 88 109 6.0 14.0 0.00 0.00 0.00 1010.8
20260904004628 89 89 8.0 16.0 0.00 0.00 0.00 1010.7
20260904004137 89 124 10.0 20.0 0.00 0.00 0.00 1010.7
20260904003614 90 90 11.0 20.0 0.00 0.00 0.00 1010.6
20260904003142 91 115 10.0 19.0 0.00 0.00 0.00 1010.6
20260904002617 91 120 9.0 20.0 0.00 0.00 0.00 1010.4
20260904002145 92 123 11.0 18.0 0.00 0.00 0.00 1010.4
20260904001659 93 105 11.0 19.0 0.00 0.00 0.00 1010.2
20260904000706 94 85 10.0 15.0 0.00 0.00 0.00 1010.3
20260904000135 94 163 7.0 12.0 0.00 0.00 0.00 1010.2
20260903235642 94 126 6.0 12.0 0.00 0.00 0.00 1010.1
20260903235115 94 115 7.0 14.0 0.00 0.00 0.00 1010.1
20260903234642 94 130 5.0 14.0 0.00 0.00 0.00 1010.0
20260903234118 94 117 9.0 14.0 0.00 0.00 0.00 1010.0
20260903233647 94 129 5.0 11.0 0.00 0.00 0.00 1010.1
20260903233201 94 84 7.0 13.0 0.00 0.00 0.00 1010.1
20260903232634 94 113 7.0 13.0 0.00 0.00 0.00 1010.0
20260903232150 94 131 4.0 13.0 0.00 0.00 0.00 1010.0
20260903231619 94 106 9.0 13.0 0.00 0.00 0.00 1009.9
20260903231155 94 132 8.0 15.0 0.00 0.00 0.00 1009.9
20260903230618 94 161 9.0 15.0 0.00 0.00 0.00 1009.9
20260903230154 94 107 9.0 15.0 0.00 0.00 0.00 1009.9
20260903225621 94 98 8.0 15.0 0.00 0.00 0.00 1009.9
20260903225149 94 136 6.0 13.0 0.00 0.00 0.00 1009.8
20260903224624 95 126 8.0 14.0 0.00 0.00 0.00 1009.8
20260903224131 95 140 8.0 16.0 0.00 0.00 0.00 1009.8
20260903223706 97 117 10.0 16.0 0.00 0.00 0.00 1009.7
20260903223138 98 119 9.0 13.0 0.00 0.00 0.00 1009.7
20260903222713 99 122 8.0 14.0 0.00 0.00 0.00 1009.5
20260903222121 100 153 8.0 14.0 0.00 0.00 0.00 1009.4
20260903221658 100 78 9.0 12.0 0.00 0.00 0.00 1009.4
20260903221146 100 170 5.0 14.0 0.00 0.00 0.00 1009.3
20260903220615 100 156 8.0 11.0 0.00 0.00 0.00 1009.5
20260903220152 99 126 3.0 15.0 0.00 0.00 0.00 1009.4
20260903215640 99 71 8.0 15.0 0.00 0.00 0.00 1009.5
20260903215116 100 113 3.0 11.0 0.00 0.00 0.00 1009.6
20260903214644 99 101 4.0 9.0 0.00 0.00 0.00 1009.6
20260903214220 99 98 5.0 10.0 0.00 0.00 0.00 1009.7
20260903213633 99 190 4.0 12.0 0.00 0.00 0.00 1009.7
20260903213142 98 138 7.0 11.0 0.00 0.00 0.00 1009.8
20260903212710 98 119 6.0 14.0 0.00 0.00 0.00 1009.9